Location: Newark
(45.4333°N, 10.9833°E)
Time: 12:29:21
(UTC+00:00)

Starlink Launch 2 leader - Visible Passes

Search period start: 07 December 2019 00:00
Search period end: 17 December 2019 00:00
Orbit: 279 x 281 km, 53.0° (Epoch: 13 November)

Date Brightness Start Highest point End Pass type
(mag) Time Alt. Az. Time Alt. Az. Time Alt. Az.
07 Dec 2.5 05:16:05 40° NNW 05:16:43 60° NNE 05:19:09 10° ESE visible
08 Dec 2.2 05:18:06 46° W 05:18:39 67° SW 05:21:05 10° SE visible
09 Dec 3.2 05:20:11 30° WSW 05:20:31 32° SW 05:22:46 10° SSE visible
10 Dec 4.3 05:22:20 17° SW 05:22:20 17° SW 05:24:03 10° S visible
